Tracking 28790 objects as of 18-Apr-2024
HD Live streaming from Space Station
objects crossing your sky now

OPS 9327 (IDSCS 14)

Track OPS 9327 (IDSCS 14) now!
OPS 9327 (IDSCS 14) is classified as:


NORAD ID: 2654
Int'l Code: 1967-003G
Perigee: 33,637.9 km
Apogee: 34,120.4 km
Inclination: 6.6 °
Period: 1,339.4 minutes
Semi major axis: 40250 km
RCS: 0.5011 m2 (medium)
Launch date: January 18, 1967
Source: United States (US)
Launch site: AIR FORCE EASTERN TEST RANGE (AFETR)
Your satellite tracking list
Your tracking list is empty




NASA's NSSDC Master Catalog

Two Line Element Set (TLE):
1 02654U 67003G   24109.54642784 -.00000060  00000-0  00000-0 0  9996
2 02654   6.6195  53.8038 0059931  28.5960 142.5354  1.07510657130987
Source of the keplerian elements: AFSPC